Floyd, NM

4:20 AM MST on February 22, 2017 (GMT -0700)
Melrose Gunnery Range

Weather History for K4MR - January, 2014

Change the Weather History Date:

Friday, January 10, 2014

  Actual Average (KCVS) Record (KCVS)
Temperature  
Mean Temperature 46 °F -  
Max Temperature 57 °F 50 °F 71 °F (2005)
Min Temperature 34 °F 25 °F 8 °F (2011)
Degree Days  
Heating Degree Days 20    
Moisture  
Dew Point 14 °F    
Average Humidity 29    
Maximum Humidity 42    
Minimum Humidity 16    
Precipitation  
Precipitation 0.00 in - - ()
Sea Level Pressure  
Sea Level Pressure 29.81 in    
Wind  
Wind Speed 17 mph (WSW)    
Max Wind Speed 33 mph    
Max Gust Speed 43 mph    
Visibility 11 miles    
Events      
Averages and records for this station are not official NWS values.
T = Trace of Precipitation, MM = Missing Value Source: NWS Daily Summary

Daily Weather History Graph

Daily Weather History Graph

Search for Another Location

Airport or City:

Trip Planner

Search our weather history database for the weather conditions in past years. The results will help you decide how hot, cold, wet, or windy it might be!

Date:

Astronomy

Jan. 10, 2014 Rise Set
Actual Time 7:01 AM MST 5:03 PM MST
Civil Twilight 6:34 AM MST 5:31 PM MST
Nautical Twilight 6:03 AM MST 6:02 PM MST
Astronomical Twilight 5:33 AM MST 6:32 PM MST
Moon 1:06 PM MST (1/10) 2:15 AM MST (1/10)
Length of Visible Light 10h 56m
Length of Day
10h 02m
Waxing Gibbous, 75% of the Moon is Illuminated
Jan 10
Waxing Gibbous
Jan 15
Full
Jan 23
Last Quarter
Jan 30
New
Feb 6
First Quarter

Hourly Weather History & Observations

Time (MST) Temp. Windchill Dew Point Humidity Pressure Visibility Wind Dir Wind Speed Gust Speed Precip Events Conditions
12:56 AM 41.7 °F 34.8 °F 19.2 °F 41% 29.79 in 12.0 mi SW 12.7 mph - N/A   Mostly Cloudy
1:56 AM 44.2 °F 37.6 °F 16.5 °F 33% 29.78 in 12.0 mi WSW 13.8 mph - N/A   Mostly Cloudy
2:56 AM 43.3 °F 36.1 °F 15.6 °F 33% 29.78 in 12.0 mi WSW 15.0 mph - N/A   Clear
3:56 AM 38.1 °F 29.1 °F 16.9 °F 42% 29.78 in 12.0 mi SW 16.1 mph 21.9 mph N/A   Clear
4:56 AM 41.5 °F 32.9 °F 12.2 °F 30% 29.79 in 12.0 mi SW 18.4 mph 25.3 mph N/A   Clear
5:56 AM 39.6 °F 31.3 °F 11.7 °F 32% 29.80 in 12.0 mi WSW 15.0 mph 21.9 mph N/A   Clear
6:56 AM 40.1 °F 31.6 °F 11.7 °F 31% 29.81 in 12.0 mi SW 16.1 mph - N/A   Clear
7:56 AM 37.9 °F 29.2 °F 12.6 °F 35% 29.86 in 12.0 mi SW 15.0 mph - N/A   Clear
8:56 AM 44.1 °F 35.9 °F 14.2 °F 30% 29.82 in 12.0 mi SW 19.6 mph 27.6 mph N/A   Clear
9:56 AM 49.3 °F - 16.0 °F 27% 29.80 in 12.0 mi West 24.2 mph 35.7 mph N/A   Clear
10:35 AM 50.0 °F - 15.8 °F 26% 29.86 in 4.0 mi West 31.1 mph 42.6 mph N/A   Widespread Dust
10:56 AM 50.7 °F - 16.0 °F 25% 29.79 in 7.0 mi West 33.4 mph 40.3 mph N/A   Clear
11:56 AM 54.0 °F - 14.9 °F 21% 29.74 in 12.0 mi West 26.5 mph 39.1 mph N/A   Clear
12:56 PM 54.9 °F - 14.4 °F 20% 29.72 in 12.0 mi West 28.8 mph 40.3 mph N/A   Clear
1:56 PM 55.9 °F - 16.3 °F 21% 29.71 in 9.0 mi West 19.6 mph 34.5 mph N/A   Clear
2:56 PM 57.2 °F - 12.9 °F 17% 29.70 in 12.0 mi West 26.5 mph 40.3 mph N/A   Clear
3:56 PM 56.3 °F - 10.8 °F 16% 29.71 in 12.0 mi West 29.9 mph 41.4 mph N/A   Clear
4:56 PM 53.6 °F - 11.3 °F 19% 29.73 in 12.0 mi WNW 18.4 mph 28.8 mph N/A   Clear
5:56 PM 45.5 °F 40.3 °F 11.8 °F 26% 29.80 in 12.0 mi West 10.4 mph - N/A   Clear
6:56 PM 45.3 °F 39.7 °F 11.8 °F 26% 29.83 in 12.0 mi West 11.5 mph - N/A   Clear
7:56 PM 38.5 °F 31.1 °F 11.5 °F 33% 29.89 in 12.0 mi West 11.5 mph - N/A   Clear
8:56 PM 41.5 °F 35.0 °F 12.0 °F 30% 29.91 in 12.0 mi West 11.5 mph - N/A   Clear
9:56 PM 38.5 °F 31.1 °F 12.7 °F 35% 29.94 in 12.0 mi West 11.5 mph - N/A   Clear
10:56 PM 34.3 °F 27.0 °F 12.7 °F 41% 29.98 in 12.0 mi West 9.2 mph - N/A   Clear
11:56 PM 36.0 °F 28.0 °F 12.7 °F 38% 29.96 in 12.0 mi West 11.5 mph - N/A   Clear